2016 Springfield Knights of Columbus 5K Run
Burke Lake Park, VA 
Saturday October 1, 2016 9:00 AM

************ Results by Age Group **************


********** FEMALE Overall Winners ***********

PlaceNameAgeTimePace 
ELIZABETH HOLLIS 39 21:54 7:03
MEGHAN GORDON 32 21:57 7:04
MARYBETH DELLIBOVI 32 26:23 8:30


********** MALE Overall Winners ***********

PlaceNameAgeTimePace 
PHILIP VARGAS 24 19:45 6:22
JONAH BERKEY 8 22:03 7:06
TIMOTHY CHURCH 53 22:05 7:07
 
 


FEMALE AGE GROUP: 1 - 8

PlaceNameAgeTimePace 
IZZY MEYERS 8 32:34 10:29
KELBEY LARCHICK 8 36:48 11:51
MARISOL EMERSON 8 38:19 12:20
MARIA SANDS-PINGOT 8 38:43 12:28
ZOE RODRIGUEZ 8 43:28 14:00
SIERRA SORIANO 6 49:36 15:58
ADRIANNA SALINDA-PIRATO 6 49:44 16:01
FAITH RYAN 7 53:25 17:12


MALE AGE GROUP: 1 - 8

PlaceNameAgeTimePace 
NATHAN BEARD 7 33:14 10:42
JOSEPH BOECKX 8 33:16 10:43
OSVALDO (III) RODRIGUEZ 5 41:00 13:12
WARREN GENOVEA 8 43:27 13:59
BRENDAN NGUYEN 6 48:01 15:28
TYLER TRUONG 8 54:08 17:26
BRODY MEYERS 5 1:05:00 20:56


FEMALE AGE GROUP: 9 - 13

PlaceNameAgeTimePace 
URRIE GENOVEA 11 28:48 9:17
FRANCES TIGANI 9 33:49 10:53
MARY SCHMITT 12 36:57 11:54
CHARLOTTE RHODES 10 39:59 12:52
ANNETTE EMERSON 13 40:03 12:54
EMILY BOECKX 10 40:07 12:55
BURIENNE TIAGO 11 45:08 14:32


MALE AGE GROUP: 9 - 13

PlaceNameAgeTimePace 
NOAH BEARD 10 24:45 7:58
JJ TIAGO 9 30:12 9:43
JACK TIGANI 11 32:17 10:24
ETHAN SORIANO 10 38:25 12:22
DIEGO MATA VELASQUEY 9 38:42 12:28
RENE JR. TEJADA 9 45:43 14:43
JUAN TEJADA 10 45:58 14:48
ROBERT RYAN 10 46:20 14:55


FEMALE AGE GROUP: 14 - 19

PlaceNameAgeTimePace 
JACQUELYN EMERSON 15 27:19 8:48
KAREN EMERSON 18 38:19 12:20
JULIE HANSON 19 53:49 17:20


MALE AGE GROUP: 14 - 19

PlaceNameAgeTimePace 
JOSEPH PRICE 17 24:51 8:00
PATRICK HANSON 16 49:16 15:52
MATTHEW MCDONNELL 18 49:19 15:53


FEMALE AGE GROUP: 20 - 35

PlaceNameAgeTimePace 
VON GENOVEA 35 27:04 8:43
MEGAN BURPO 22 28:40 9:14
JENNA DELAY 31 30:54 9:57
NOBU IWATA 30 30:54 9:57
AUDREY MAIURANO 34 32:15 10:23
BRIDGET DRAIN 25 34:47 11:12
ANDREA GOETCHIUS 28 37:05 11:57
KATHERINE CARLSON 33 37:49 12:11
CHRISTINE BACCANTE 34 37:49 12:11


MALE AGE GROUP: 20 - 35

PlaceNameAgeTimePace 
WILL BU 28 34:30 11:07
MIKE DANCE 35 52:55 17:02


FEMALE AGE GROUP: 36 - 50

PlaceNameAgeTimePace 
NATALIE DANCE 36 29:17 9:26
YEN TIGANI 43 33:50 10:54
SUSAN SHEA 42 34:29 11:06
LISA BOECKX 42 34:48 11:12
VALENTINA SANDS-PINGOT 40 38:45 12:29
ZAIDY RODRIGUEZ 40 44:22 14:17
JEAN NGUYEN 43 48:00 15:27
MARILOU MANNEBACH 41 51:58 16:44
GINA SORIANO 38 52:32 16:55
10  JJ MEYERS 49 52:58 17:03
11  CAREN DUNNE 47 53:24 17:12
12  ING LING RHODES 50 53:41 17:17
13  GENEVIEVE TRUONG 36 54:18 17:29
14  SANDRA BARRICK 48 54:27 17:32
15  NELLIE SANCHEZ 41 56:05 18:03
16  CARMEN RAMOS 49 56:05 18:04


MALE AGE GROUP: 36 - 50

PlaceNameAgeTimePace 
MICHAEL PRICE 49 22:42 7:19
DON MANNEBACH 44 24:50 8:00
JOE BOECKX 42 27:23 8:49
DANIEL PIRATO 36 27:39 8:54
JOSEPH TIAGO 45 29:03 9:21
RENE TEJADA 41 30:42 9:53
JASON MEYERS 45 32:36 10:30
VIDA BEARD 41 34:37 11:09
JEREMY LARCHICK 42 36:49 11:51
10  RENE SORIANO 45 38:28 12:23
11  CHARLES EMERSON 49 40:03 12:54
12  JOSE RODRIGUEZ 42 40:59 13:12


FEMALE AGE GROUP: 50 - 99

PlaceNameAgeTimePace 
KATHARINE MILLER 61 29:05 9:22
JEAN CORDAY 53 30:34 9:51
DEB BEARD 51 30:52 9:57
THERESA HEANEY 54 33:37 10:50
LAURA VARGAS 57 34:13 11:01
MICHELLE MCDONNELL 52 34:22 11:04
DONNA FEERST 62 42:53 13:48
NIMA RINI 64 44:21 14:17
CAROL BANKS 69 46:52 15:05
10  MARY WHITE 62 51:46 16:40
11  ING LING RHODES 50 53:41 17:17
12  BETH MONROE 53 53:48 17:19
13  ALEIDA GOETCHIUS 56 54:24 17:31
14  BARBARA PECKL 51 54:28 17:32


MALE AGE GROUP: 50 - 99

PlaceNameAgeTimePace 
DOUGLAS VARGAS 56 25:16 8:08
STEPHEN BANKS 70 26:25 8:30
STAN LONG 56 29:20 9:27
JOHN GOETCHIUS 62 29:27 9:29
BRION HEANEY 55 29:29 9:30
SCOTT MONROE 57 30:15 9:44
JOHN BURPO 58 35:53 11:33
PETER WHITE 64 37:19 12:01
GUY SANDS-PINGOT 59 38:07 12:17
10  TOM RINI 67 38:23 12:22
11  LUIS VELASQUEY 51 42:18 13:37
12  JOE MCDONNELL 57 46:36 15:00
13  TOM FEERST 62 51:18 16:31
14  JAY RHODES 51 58:43 18:54
Joomla templates by a4joomla